Wind_Speed
31 31 30 28 28 26 25 25 25 24 23 21 21 22 21 19 18 17 18 18 18 17 16 15 14 14 12 11 11 11 9 7 7 7 7 7 7 6 6 6 6 7
31 31 30 29 28 28 27 26 26 24 25 23 21 21 21 20 20 19 18 19 19 18 17 16 15 15 14 12 12 12 10 9 8 7 7 8 8 7 7 7 7 7
32 30 30 29 29 30 28 27 26 25 25 25 23 21 20 20 21 21 20 20 20 19 18 18 17 16 15 14 13 12 11 11 10 8 8 9 8 8 8 8 8 8
33 30 30 29 28 29 29 27 27 26 25 25 25 23 20 19 21 22 22 21 21 20 19 19 18 17 17 16 15 14 13 12 12 10 10 10 9 9 9 9 8 8
35 32 30 29 28 29 30 28 28 27 26 25 25 25 23 21 21 23 23 23 22 21 20 20 19 18 18 17 17 16 14 13 13 12 12 11 11 10 9 9 9 9
35 34 31 30 29 29 30 30 29 28 27 26 25 25 25 24 23 23 24 24 24 23 22 21 21 20 19 19 19 18 17 15 14 14 14 13 12 11 10 10 11 11
35 35 33 30 29 29 29 30 30 29 28 27 26 25 25 26 25 24 24 24 24 24 23 22 22 22 21 20 21 20 19 17 15 15 16 15 14 13 12 12 11 11
35 35 34 31 30 29 29 29 30 30 29 28 27 26 26 26 27 25 25 25 25 24 24 24 24 24 22 21 22 22 20 19 18 17 17 16 16 15 14 14 13 12
35 34 34 33 31 30 29 29 29 30 30 29 27 27 27 27 28 27 26 26 26 25 25 25 25 25 24 23 23 23 22 20 19 19 19 17 17 16 16 15 14 14
36 35 34 34 32 31 30 30 29 29 30 30 28 27 27 28 28 28 28 28 27 26 26 26 25 26 26 24 24 24 23 22 20 20 20 20 19 18 17 17 16 16
36 35 35 35 34 32 32 31 29 28 29 30 29 27 28 28 29 29 29 30 29 27 26 27 26 26 27 26 25 24 24 23 21 21 21 20 21 20 18 18 18 18
36 36 35 36 36 33 32 32 30 29 29 29 30 29 28 28 29 30 30 31 32 30 28 28 27 27 27 27 25 24 24 24 22 22 21 21 21 20 20 20 20 20
37 37 36 36 36 34 32 32 32 30 29 29 30 30 29 28 28 29 30 30 32 32 30 29 29 28 28 29 27 25 25 24 23 22 22 21 21 21 21 20 21 21
39 38 37 37 36 35 33 32 32 31 31 31 30 30 29 28 28 29 29 29 30 32 31 30 30 30 29 30 30 27 26 26 24 23 22 21 21 21 21 21 21 21
39 37 37 37 36 36 34 33 33 32 32 32 32 31 30 29 29 29 29 29 28 30 30 29 30 31 31 31 31 30 27 26 25 25 23 22 22 22 21 21 22 21
38 37 37 37 37 37 36 34 32 32 32 32 33 32 30 31 30 29 29 29 29 29 30 29 29 30 31 32 33 33 30 27 26 26 25 24 23 23 22 22 22 22
37 37 37 38 38 39 38 36 33 33 32 31 32 33 32 32 32 30 29 29 29 29 29 29 28 28 31 33 34 33 33 30 27 27 26 26 25 24 24 24 23 22
37 37 36 37 38 39 39 38 35 33 33 33 32 33 33 32 32 32 30 29 29 28 28 28 28 29 31 33 35 34 34 32 29 27 27 27 27 26 26 25 25 24
36 36 36 37 38 38 39 39 37 34 34 34 32 32 33 32 31 31 31 30 29 29 29 28 28 29 30 33 35 36 35 33 30 27 26 26 27 27 27 27 27 26
36 36 36 36 37 37 37 38 38 36 34 34 32 31 32 32 30 30 30 30 30 30 30 29 27 28 31 33 34 36 36 36 32 28 26 26 26 27 27 27 27 27
35 35 34 35 35 36 36 37 38 37 34 33 32 31 31 32 31 30 30 31 30 28 29 29 28 28 29 32 34 35 36 37 36 30 25 24 25 26 27 27 27 27
35 34 33 34 35 35 35 36 37 37 35 33 32 30 30 30 31 30 29 30 30 29 28 27 26 28 29 31 33 34 35 36 37 34 29 25 24 23 24 26 27 27
35 35 34 34 34 35 35 36 36 36 36 34 32 30 29 29 30 29 29 29 30 30 29 27 26 27 28 30 32 34 35 35 36 36 33 31 27 24 22 22 23 25
36 36 35 34 35 35 34 34 35 35 35 34 32 29 28 29 29 29 29 28 29 30 30 30 28 27 28 29 30 32 34 35 36 35 33 31 30 28 27 24 23 24
35 35 35 35 35 35 33 32 32 33 34 33 32 30 28 27 27 27 27 27 28 29 30 31 30 30 30 30 30 31 33 35 36 34 31 29 28 27 28 29 30 29
34 35 35 35 34 33 32 31 30 30 31 32 32 30 29 27 26 26 26 26 27 27 29 31 31 31 32 33 33 33 33 35 35 33 31 29 27 25 26 28 31 32
Wind_Direction
192 194 195 195 196 197 196 196 196 196 197 198 200 202 203 202 202 200 198 202 206 207 208 210 211 212 210 212 216 215 211 209 214 221 226 234 239 244 246 242 250 255
190 193 194 195 197 197 197 198 198 199 200 201 201 203 205 205 205 204 201 200 203 206 207 208 211 212 209 211 216 217 215 214 216 221 226 232 236 242 247 246 244 248
189 190 192 194 196 197 198 200 201 201 203 203 204 204 203 204 205 205 204 201 200 203 205 205 207 210 211 211 214 217 217 217 217 217 224 229 234 239 243 249 247 239
189 189 190 193 196 197 199 200 201 201 203 205 205 205 203 203 203 204 205 203 201 202 204 205 205 207 211 211 213 216 218 220 219 216 222 227 230 235 237 245 250 244
190 190 191 193 195 197 198 199 201 201 202 205 205 205 205 204 201 200 203 203 201 202 204 205 205 206 210 210 212 215 217 220 220 218 220 224 228 231 234 238 241 245
190 191 192 193 195 196 197 198 201 201 202 204 204 204 205 205 202 198 200 202 202 203 203 204 205 205 207 209 211 213 215 217 219 219 219 221 225 226 229 235 237 239
188 189 191 193 195 196 197 198 200 201 201 203 203 203 203 205 204 200 199 201 202 204 204 203 203 203 204 207 210 213 214 216 218 219 219 220 222 224 226 230 234 236
186 188 189 191 194 196 197 198 199 200 201 201 202 202 201 203 204 203 202 201 202 204 205 205 204 203 203 205 209 213 214 215 216 216 217 218 220 223 225 226 228 233
185 186 188 190 193 195 197 198 198 200 201 201 201 201 201 202 203 203 203 203 203 204 206 206 205 204 203 204 208 212 213 214 215 216 216 216 219 222 223 222 224 228
185 186 187 190 193 195 197 197 197 198 199 200 200 200 199 200 201 202 202 203 203 204 206 207 207 206 204 205 208 211 213 214 215 218 219 217 219 222 222 221 221 224
186 187 188 190 193 195 196 197 197 196 197 198 198 199 199 199 200 200 201 202 203 204 206 206 207 207 205 205 208 210 213 215 215 217 219 220 221 222 224 224 224 225
186 188 190 191 193 195 195 196 197 196 196 197 198 199 198 198 199 200 201 203 203 204 206 206 206 207 207 206 207 209 211 213 216 217 219 221 223 224 225 226 227 228
187 189 191 192 194 196 196 195 196 196 196 196 198 199 199 199 198 200 202 203 204 205 206 207 206 206 208 208 207 209 210 211 213 216 219 221 223 225 227 226 227 229
189 189 191 192 193 196 196 196 197 197 197 196 196 199 201 201 199 199 201 203 204 206 206 207 207 207 208 209 208 209 210 210 212 214 217 220 222 224 227 227 227 228
189 188 190 191 193 195 197 198 198 198 198 195 195 198 201 203 202 199 199 201 204 206 206 206 207 207 208 209 209 210 210 210 211 213 215 218 220 223 226 228 229 229
188 188 190 190 191 194 196 198 198 198 199 197 194 197 200 203 204 200 197 199 202 204 205 207 208 208 209 210 211 211 211 210 211 213 215 216 219 222 225 228 230 231
188 189 189 189 190 192 195 197 198 197 200 199 196 196 199 202 204 202 198 198 200 202 203 206 209 209 209 211 213 213 212 211 211 212 214 216 219 222 225 228 230 232
189 189 189 190 191 192 193 195 197 197 199 200 198 196 198 201 203 204 202 199 199 202 203 205 209 212 212 212 214 216 215 213 213 213 215 217 219 223 225 228 230 232
189 190 190 191 192 192 193 194 196 198 198 200 200 196 196 200 203 205 206 203 200 201 204 207 210 213 214 214 215 217 217 216 215 215 217 218 220 223 226 228 231 232
190 191 192 193 193 192 192 193 196 198 198 198 198 197 196 198 202 206 209 208 206 203 204 208 212 214 215 216 216 218 219 218 217 217 219 221 222 224 225 227 231 232
190 192 193 193 193 192 192 194 196 198 198 197 197 198 197 198 201 205 209 211 212 209 205 208 214 216 217 217 218 220 222 221 219 218 220 223 225 226 227 228 230 232
189 192 194 193 192 192 193 194 196 197 198 197 197 199 199 199 201 205 209 211 213 214 212 212 216 218 218 218 219 221 222 221 220 220 222 226 228 228 229 230 230 231
188 191 194 193 193 194 194 195 196 196 197 197 197 199 200 199 201 204 209 210 211 214 216 217 219 220 221 221 220 220 219 218 220 221 223 228 231 232 232 232 233 232
189 191 193 192 193 195 195 195 195 195 197 197 197 199 201 200 201 203 207 210 211 213 215 217 220 222 223 223 222 220 217 216 217 219 222 227 232 235 237 238 237 236
188 191 192 192 194 194 194 194 193 193 195 197 198 201 202 201 201 203 207 211 212 214 214 215 219 223 225 224 224 221 217 215 215 215 218 224 228 232 236 238 238 239
189 191 191 192 192 192 192 192 191 192 195 196 199 202 204 204 202 203 207 211 212 214 215 214 217 221 225 225 224 222 219 214 212 212 215 219 223 226 230 234 236 237
Height
804 807 809 812 814 816 818 820 822 825 827 828 830 832 833 835 837 838 840 841 843 844 846 847 847 849 849 850 851 851 852 853 854 855 855 856 857 857 857 857 857 858
801 804 807 809 811 814 816 818 820 822 824 826 828 829 831 833 835 837 838 839 841 842 844 845 846 847 848 849 850 850 851 852 853 854 854 855 855 856 856 857 857 857
799 801 803 806 808 811 813 816 818 820 822 824 826 827 829 831 833 834 836 837 838 840 841 843 844 845 846 847 848 849 850 851 851 853 853 854 855 855 855 856 856 856
795 798 800 803 805 808 811 813 815 817 819 821 823 825 827 829 830 832 834 835 837 838 839 841 842 843 844 846 847 848 848 849 850 851 852 852 853 854 854 855 855 855
792 794 797 800 803 805 807 810 812 814 816 818 820 823 824 826 827 829 831 833 835 836 837 838 840 841 843 844 845 846 847 848 849 849 850 851 852 853 853 853 854 854
788 791 794 797 799 802 804 806 809 811 813 815 817 820 822 823 825 826 828 831 832 834 835 836 838 839 841 842 843 844 845 846 847 848 848 849 850 851 852 852 852 853
784 787 791 794 796 799 801 803 806 807 810 812 814 816 819 821 823 824 826 828 830 831 833 834 835 837 839 840 841 842 843 844 845 846 846 847 848 849 850 851 851 851
780 783 787 790 793 796 798 800 802 804 806 809 811 813 815 817 820 821 823 825 827 829 830 831 832 834 836 837 839 840 841 842 843 844 845 845 846 847 848 849 849 850
776 780 783 786 789 792 794 796 798 801 803 805 808 810 812 814 816 818 820 822 824 826 827 829 830 831 833 835 836 837 838 840 841 842 843 843 844 845 846 847 847 848
772 776 779 782 785 787 790 792 795 797 799 802 804 807 808 811 813 815 817 819 821 823 825 826 828 829 831 832 834 835 836 837 839 840 840 841 842 843 844 845 845 846
768 771 774 777 780 783 785 788 791 793 796 798 801 803 805 807 809 811 814 815 818 820 822 823 825 826 828 829 831 832 833 835 836 838 838 839 840 841 842 843 843 844
764 767 770 772 775 778 781 784 787 789 792 794 797 799 801 804 806 808 810 812 814 816 818 820 822 823 825 826 828 830 831 832 834 835 836 837 838 838 839 840 841 841
758 761 765 768 771 774 777 780 783 785 788 790 793 796 798 800 802 805 807 809 810 812 815 817 818 820 822 823 825 827 828 829 831 832 833 834 835 836 837 838 838 839
752 756 760 764 768 771 774 776 779 781 784 786 789 792 794 796 799 801 804 806 808 809 811 813 815 817 818 820 822 823 825 826 828 829 830 831 832 833 834 835 835 836
748 752 756 760 764 767 771 773 775 778 780 783 785 788 791 793 795 797 800 802 805 807 809 811 812 813 814 816 818 820 822 823 824 826 827 828 829 830 831 832 832 834
745 749 752 756 759 763 766 770 772 775 777 779 782 784 787 789 791 794 796 799 801 803 806 808 808 809 811 812 814 816 818 820 821 822 824 825 826 827 828 828 829 830
743 746 748 751 754 758 762 766 769 772 774 776 778 781 783 786 788 790 792 795 797 800 802 804 805 806 807 809 811 813 815 817 818 819 820 822 823 824 824 825 826 827
739 742 745 748 751 754 757 761 765 768 770 773 775 777 780 783 785 787 788 791 793 796 798 799 801 802 804 805 807 809 812 813 815 816 817 818 820 820 821 822 823 824
737 739 742 744 747 750 753 757 761 763 766 769 772 774 777 780 782 784 786 787 789 791 794 795 797 799 800 802 804 806 808 810 812 813 814 815 816 817 818 819 820 821
734 736 738 741 744 747 751 753 757 759 762 765 768 771 774 776 779 782 783 785 786 787 790 792 793 795 796 798 800 802 805 807 809 810 811 812 813 814 815 816 817 818
730 733 736 739 741 745 748 750 753 756 758 762 764 768 770 773 776 779 780 782 784 785 787 788 790 792 793 795 797 799 801 803 806 808 809 810 811 811 812 813 814 815
727 730 733 736 739 742 744 747 749 752 755 758 761 764 767 769 772 775 777 779 781 783 784 785 787 788 790 792 793 795 798 800 803 805 806 807 808 809 810 810 811 812
722 726 729 732 735 738 740 743 746 749 753 756 758 761 763 766 769 771 774 776 778 780 781 782 784 785 787 788 790 792 794 797 799 801 803 804 805 806 807 808 808 809
718 722 725 729 731 733 736 739 743 746 750 753 756 758 760 763 765 768 770 773 774 776 778 780 781 782 784 785 787 789 791 793 796 798 799 800 802 803 804 805 806 806
715 718 721 724 727 730 734 737 740 744 747 750 753 755 758 760 762 765 767 769 771 773 774 776 778 779 781 782 784 785 787 789 792 794 796 797 799 800 801 802 802 803
712 715 718 721 724 728 732 735 738 741 745 747 750 753 755 757 759 761 763 765 767 769 770 772 774 775 777 778 780 782 784 786 788 790 792 793 795 796 797 797 798 798